This is the latest recevied weather packets stored in our database for station/object W4ZHA. If no packets are shown the sender has not sent any weather packets the latest 10 day(s).
| Time | Temp. | Humidity | Pressure | Rain* | Wind** | Luminosity | Snow |
|---|---|---|---|---|---|---|---|
| 1787445081 | 25° C | 68% | 1014.4 hPa | 0 mm | - | 0 W/m² | - |
| 1787444777 | 26.11° C | 67% | 1014.8 hPa | 0 mm | - | 0 W/m² | - |
| 1787444474 | 26.11° C | 66% | 1014.4 hPa | 0 mm | - | 0 W/m² | - |
| 1787444168 | 26.11° C | 65% | 1014.4 hPa | 0 mm | - | 0 W/m² | - |
| 1787443868 | 26.11° C | 65% | 1014.4 hPa | 0 mm | - | 2 W/m² | - |
| 1787443561 | 27.22° C | 64% | 1014.4 hPa | 0 mm | - | 6 W/m² | - |
| 1787443257 | 27.22° C | 64% | 1014.4 hPa | 0 mm | - | 17 W/m² | - |
| 1787442956 | 27.78° C | 63% | 1014.4 hPa | 0 mm | - | 23 W/m² | - |
| 1787442653 | 27.78° C | 63% | 1014.4 hPa | 0 mm | - | 26 W/m² | - |
| 1787442349 | 27.78° C | 63% | 1014.8 hPa | 0 mm | - | 29 W/m² | - |
| 1787442049 | 28.33° C | 63% | 1014.4 hPa | 0 mm | - | 29 W/m² | - |
| 1787441749 | 28.89° C | 59% | 1014.4 hPa | 0 mm | - | 29 W/m² | - |
| 1787441444 | 29.44° C | 58% | 1014.4 hPa | 0 mm | - | 27 W/m² | - |
| 1787441139 | 29.44° C | 54% | 1014.4 hPa | 0 mm | - | 38 W/m² | - |
| 1787440836 | 30° C | 48% | 1014.4 hPa | 0 mm | - | 36 W/m² | - |
| 1787440535 | 30.56° C | 45% | 1014.4 hPa | 0 mm | - | 52 W/m² | - |
| 1787440232 | 30.56° C | 45% | 1014.1 hPa | 0 mm | - | 47 W/m² | - |
| 1787439928 | 30.56° C | 45% | 1014.1 hPa | 0 mm | - | 51 W/m² | - |
| 1787439623 | 31.11° C | 45% | 1014.4 hPa | 0 mm | - | 66 W/m² | - |
| 1787439319 | 31.11° C | 45% | 1014.4 hPa | 0 mm | - | 69 W/m² | - |
| 1787439015 | 32.22° C | 45% | 1014.4 hPa | 0 mm | - | 171 W/m² | - |
| 1787438715 | 32.22° C | 45% | 1014.4 hPa | 0 mm | - | 227 W/m² | - |
| 1787438414 | 32.78° C | 45% | 1014.4 hPa | 0 mm | - | 244 W/m² | - |
| 1787438109 | 32.22° C | 45% | 1014.4 hPa | 0 mm | - | 250 W/m² | - |
| 1787437805 | 32.78° C | 45% | 1014.1 hPa | 0 mm | - | 265 W/m² | - |
* Rain latest hour (hover to see other rain measurements)
** Current wind speed in m/s (hover to see current wind gust speed)